Regional Weather Roundup
Issued by NWS

Home | Current Version | Previous Version | Text Only | Print | Product List | Glossary Off
Versions: 1 2 3 4 5 6 7 8 9 10 11 12 13 14 15 16 17 18 19 20 21 22 23 24 25 26 27 28 29 30 31 32 33 34 35 36 37 38 39 40 41 42 43 44 45 46 47 48 49 50

000
ASUS44 KMEG 301110
RWRTN
TENNESSEE HOURLY STATE WEATHER ROUNDUP
NATIONAL WEATHER SERVICE MEMPHIS TN
600 AM CDT TUE SEP 30 2014

TNZ002-004-019-021-049-052-054-088>092-301200-
WEST TENNESSEE

CITY           SKY/WX    TMP DP  RH WIND       PRES   REMARKS
MEMPHIS INTL   CLEAR     65  59  81 CALM      29.94R
NWS MEMPHIS      N/A     60 N/A N/A MISG        N/A
JACKSON        CLEAR     57  55  93 CALM      29.94R FOG
DYERSBURG      CLEAR     57  46  67 CALM      29.96R
UNION CITY       N/A     54  54 100 CALM      29.94S VSB 1/2
PARIS          CLEAR     54  52  94 CALM      29.96R
HUNTINGDON     CLEAR     55  54  97 CALM      29.95S
LEXINGTON      CLEAR     55  55 100 CALM      29.94R
SAVANNAH       CLEAR     55  55 100 CALM      29.96R
$$

TNZ008-025-027-028-033-062-065-066-301200-
NORTH MIDDLE TENNESSEE

CITY           SKY/WX    TMP DP  RH WIND       PRES   REMARKS
NASHVILLE      CLEAR     60  58  92 CALM      29.96R
DICKSON        CLEAR     59  55  88 CALM      29.96R
PORTLAND         N/A     54  52  94 CALM      29.95R VSB 1/2
CLARKSVILLE    CLEAR     53  52  96 CALM      29.95R FOG
LEBANON        CLEAR     55  55 100 CALM      29.94R
SMYRNA         CLEAR     58  58 100 CALM      29.96S
MURFREESBORO   CLEAR     58  56  93 CALM      29.96R
COOKEVILLE       N/A     52  52 100 CALM      29.97R VSB 3/4
LIVINGSTON     CLEAR     59  58  96 SW5       29.97S
GALLATIN       CLEAR     56  56 100 CALM      29.97R
CROSSVILLE     CLEAR     57  53  86 CALM      30.00R
$$

TNZ061-075-076-078-094-096-097-301200-
SOUTH MIDDLE TENNESSEE

CITY           SKY/WX    TMP DP  RH WIND       PRES   REMARKS
LEWISBURG      CLEAR     55  53  93 CALM      29.96R
FAYETTEVILLE   CLEAR     57  57 100 MISG      29.98R
TULLAHOMA      PTCLDY    55  54  94 CALM      29.99R
WINCHESTER     CLEAR     55  55 100 CALM      29.98R
MCMINNVILLE    MOCLDY    55  55 100 CALM      29.97S VSB 1/2
COLUMBIA       CLEAR    N/A N/A N/A CALM      29.95R
SHELBYVILLE    CLEAR     55  55 100 CALM      29.97S
$$

TNZ017-018-042-046-047-301200-
NORTHEAST TENNESSEE

CITY           SKY/WX    TMP DP  RH WIND       PRES   REMARKS
TRI CITIES     FOG       54  52  93 CALM      29.99S VSB 1/16
ELIZABETHTON   SUNNY     54  54 100 CALM      30.00R
$$

TNZ012-013-036-069-073-074-301200-
CENTRAL EAST TENNESSEE

CITY           SKY/WX    TMP DP  RH WIND       PRES   REMARKS
KNOXVILLE      PTCLDY    60  58  92 CALM      29.96S
OAK RIDGE      FOG       62  61  96 CALM      29.99R VSB 3/4
GATLINBURG     SUNNY     54  54 100 CALM      29.98S
$$

TNZ083-085-099-301200-
SOUTHEAST TENNESSEE

CITY           SKY/WX    TMP DP  RH WIND       PRES   REMARKS
CHATTANOOGA    FOG       62  60  93 CALM      29.97R VSB 1/4
$$

SKY/WX REPORTED AS FAIR MEANS FEW OR NO CLOUDS BELOW
12 THOUSAND FEET.



USA.gov is the U.S. government's official web portal to all federal, state and local government web resources and services.